Location: Unspecified
(0.0000°N, 0.0000°E)
Time: 18:03:37
(UTC+00:00)

CZ-3 Stage 3 - Pass Details

Date: 25 May 2019
Orbit: 499 x 34693 km, 30.5° (Epoch: 23 June)

Event Time Altitude Azimuth Distance (km) Brightness Sun altitude
Rises 20:07:47 0° 261° (W) 2,902 6.3 -30.3°
Reaches altitude 10° 20:10:24 10° 282° (WNW) 1,705 5.2 -30.9°
Enters shadow 20:12:07 19° 317° (NW) 1,247 4.2 -31.3°
